Mt. Pocono, PA

8:01 AM EST on December 15, 2019 (GMT -0500)
Pocono Mountains Municipal

Weather History for KMPO - October, 2019

Change the Weather History Date:

Tuesday, October 1, 2019

  Actual Average Record
Temperature  
Mean Temperature 64 °F 53 °F  
Max Temperature 73 °F 62 °F 85 °F (1927)
Min Temperature 55 °F 44 °F 22 °F (1916)
Degree Days  
Heating Degree Days 1 12  
Month to date heating degree days 12  
Since 1 July heating degree days 280  
Cooling Degree Days 0 0  
Month to date cooling degree days 0  
Year to date cooling degree days 313  
Growing Degree Days 14 (Base 50)    
Moisture  
Dew Point 60 °F    
Average Humidity 95    
Maximum Humidity 100    
Minimum Humidity 76    
Precipitation  
Precipitation 0.00 in 0.16 in 2.00 in (1920)
Month to date precipitation 0.16  
Year to date precipitation 36.50  
Sea Level Pressure  
Sea Level Pressure 30.11 in    
Wind  
Wind Speed 8 mph ()    
Max Wind Speed 12 mph    
Max Gust Speed -    
Visibility 5.1 miles    
Events      
T = Trace of Precipitation, MM = Missing Value Source: Averaged Metar Reports

Daily Weather History Graph

Daily Weather History Graph

Search for Another Location

Airport or City:

Astronomy

Oct. 01, 2019 Rise Set
Actual Time 6:57 AM EDT 6:43 PM EDT
Civil Twilight 6:30 AM EDT 7:11 PM EDT
Nautical Twilight 5:58 AM EDT 7:43 PM EDT
Astronomical Twilight 5:26 AM EDT 8:15 PM EDT
Moon 10:12 AM EDT (10/1) 8:53 PM EDT (10/1)
Length of Visible Light 12h 40m
Length of Day
11h 45m
Waxing Crescent, 12% of the Moon is Illuminated
Oct 1
Waxing Crescent
Oct 5
First Quarter
Oct 13
Full
Oct 21
Last Quarter
Oct 27
New

Hourly Weather History & Observations

Time (EDT) Temp. Dew Point Humidity Pressure Visibility Wind Dir Wind Speed Gust Speed Precip Events Conditions
12:21 AM 55.0 °F 55.0 °F 100% 30.20 in 0.8 mi South 8.1 mph - N/A   Mist
12:53 AM 55.0 °F 55.0 °F 100% 30.20 in 0.8 mi Variable 6.9 mph - N/A   Mist
1:14 AM 55.0 °F 55.0 °F 100% 30.19 in 1.2 mi SSW 9.2 mph - N/A   Overcast
1:33 AM 55.0 °F 55.0 °F 100% 30.20 in 2.0 mi SSW 8.1 mph - N/A   Overcast
1:53 AM 55.0 °F 55.0 °F 100% 30.19 in 1.8 mi South 5.8 mph - N/A   Overcast
2:21 AM 55.0 °F 55.0 °F 100% 30.18 in 2.0 mi SSW 6.9 mph - N/A   Overcast
2:53 AM 55.0 °F 55.0 °F 100% 30.18 in 2.5 mi SSW 6.9 mph - N/A   Overcast
3:17 AM 55.0 °F 55.0 °F 100% 30.17 in 3.0 mi SSW 10.4 mph - N/A   Overcast
3:29 AM 55.0 °F 55.0 °F 100% 30.17 in 2.5 mi SW 6.9 mph - N/A   Overcast
3:53 AM 55.0 °F 55.0 °F 100% 30.17 in 1.8 mi SW 8.1 mph - N/A   Overcast
4:53 AM 55.9 °F 55.9 °F 100% 30.16 in 1.5 mi SW 9.2 mph - N/A   Overcast
5:36 AM 55.9 °F 55.9 °F 100% 30.14 in 2.0 mi SW 9.2 mph - N/A   Overcast
5:53 AM 55.9 °F 55.9 °F 100% 30.15 in 2.5 mi SW 8.1 mph - N/A   Overcast
6:14 AM 57.0 °F 57.0 °F 100% 30.15 in 2.5 mi WSW 9.2 mph - N/A   Mist
6:34 AM 57.0 °F 57.0 °F 100% 30.15 in 2.0 mi WSW 8.1 mph - N/A   Overcast
6:53 AM 57.0 °F 57.0 °F 100% 30.14 in 1.8 mi WSW 10.4 mph - N/A   Overcast
7:50 AM 57.2 °F 57.2 °F 100% 30.14 in 0.8 mi WSW 9.2 mph - N/A   Overcast
7:53 AM 57.9 °F 57.9 °F 100% 30.14 in 0.8 mi WSW 9.2 mph - N/A   Overcast
8:53 AM 57.9 °F 57.9 °F 100% 30.13 in 1.0 mi WSW 11.5 mph - N/A   Overcast
9:53 AM 60.1 °F 60.1 °F 100% 30.14 in 1.0 mi Calm Calm - N/A   Overcast
10:38 AM 61.0 °F 61.0 °F 100% 30.13 in 2.0 mi West 9.2 mph - N/A   Overcast
10:50 AM 62.6 °F 62.6 °F 100% 30.13 in 1.8 mi West 8.1 mph - N/A   Overcast
10:53 AM 62.1 °F 62.1 °F 100% 30.12 in 2.0 mi West 8.1 mph - N/A   Overcast
11:13 AM 62.1 °F 62.1 °F 100% 30.12 in 3.0 mi West 10.4 mph - N/A   Overcast
11:53 AM 64.0 °F 64.0 °F 100% 30.11 in 10.0 mi WSW 9.2 mph - N/A   Overcast
12:23 PM 64.9 °F 63.0 °F 93% 30.12 in 10.0 mi West 10.4 mph - N/A   Overcast
12:53 PM 66.0 °F 64.0 °F 93% 30.10 in 10.0 mi WSW 8.1 mph - N/A   Overcast
1:04 PM 66.9 °F 64.0 °F 90% 30.10 in 10.0 mi SSW 10.4 mph - N/A   Overcast
1:32 PM 69.1 °F 64.0 °F 84% 30.08 in 10.0 mi West 8.1 mph - N/A   Scattered Clouds
1:53 PM 70.0 °F 64.0 °F 81% 30.05 in 10.0 mi SW 10.4 mph - N/A   Clear
2:53 PM 72.0 °F 64.9 °F 78% 30.04 in 10.0 mi WSW 9.2 mph - N/A   Partly Cloudy
3:53 PM 73.0 °F 64.9 °F 76% 30.02 in 10.0 mi WSW 11.5 mph - N/A   Clear
4:53 PM 73.0 °F 64.9 °F 76% 30.01 in 10.0 mi SW 10.4 mph - N/A   Unknown
5:53 PM 72.0 °F 64.9 °F 78% 30.01 in 10.0 mi SW 8.1 mph - N/A   Clear
6:53 PM 69.1 °F 64.9 °F 87% 30.01 in 10.0 mi WSW 5.8 mph - N/A   Clear
7:53 PM 69.1 °F 64.9 °F 87% 30.00 in 10.0 mi WSW 6.9 mph - N/A   Clear
8:53 PM 68.0 °F 66.0 °F 93% 30.00 in 10.0 mi West 9.2 mph - N/A   Clear
9:53 PM 68.0 °F 66.0 °F 93% 29.99 in 10.0 mi West 9.2 mph - N/A   Clear
10:53 PM 68.0 °F 66.0 °F 93% 29.96 in 10.0 mi West 9.2 mph - N/A   Clear
11:53 PM 66.9 °F 66.0 °F 97% 29.93 in 10.0 mi SSW 3.5 mph - N/A   Clear